الصفحة الرئيسية
METAR-TAF:

METAR-TAF

مطار :

Coonabarabran, أستراليا

دائرة عرض: 31-20S, خط طول: 149-16E, ارتفاع: 645 متر

مراقبة الطقس الحالي

تاريخ ووقت الإصدار 36 دقيقة قبل الساعة 17:00UTC
ريح 6 عقدة من الغرب/الجنوب الغربي
درجة الحرارة 8°درجة مئوية
الرطوبة 53%
ضغط 1018 hPa
الرؤية 10 كم أو أكثر

METAR: YCBB 221700Z AUTO 24006KT 9999 // NCD 08/M01 Q1018

زمن: 03:36 (17:36 UTC)


TAF: مفقودة

أرصاد الطقس والتوقعات من أكثر من 4000 مطار (تقارير الطقس للمطار METAR والتنبؤ بالطقس بالمطارTAF).

المحطات المتاحة هي النقط الصفراء والحمراء على الخريطة.

حرك المؤشر فوق النقطة لمعرفة اسم المحطة.

ثم انقر لمعرفة أرصاد وتوقعات الطقس.

لتغيير الخارطة: اضغط على الأزرار الخضراء مع رمز الصليب الأسود للتكبير. على الزر الأخضر مع شرطة للتصغير، أو على الأسهم الخضراء للخرائط المجاورة.


METAR-TAF: